Weather History for Vacaville, CA

Change the Weather History Date:

Tuesday, January 21, 2014

  Actual Average Record
Temperature  
Mean Temperature 52 °F -  
Max Temperature 73 °F 57 °F 73 °F (2014)
Min Temperature 30 °F 37 °F 26 °F (1963)
Degree Days  
Heating Degree Days 14    
Growing Degree Days 2 (Base 50)    
Moisture  
Dew Point 22 °F    
Average Humidity 46    
Maximum Humidity 82    
Minimum Humidity 12    
Precipitation  
Precipitation 0.00 in - - ()
Sea Level Pressure  
Sea Level Pressure 30.23 in    
Wind  
Wind Speed 2 mph (North)    
Max Wind Speed 6 mph    
Max Gust Speed -    
Visibility 10 miles    
Events      
Averages and records for this station are not official NWS values.
T = Trace of Precipitation, MM = Missing Value Source: NWS Daily Summary

Daily Weather History Graph

Daily Weather History Graph

Search for Another Location

Airport:

Trip Planner

Search our weather history database for the weather conditions in past years. The results will help you decide how hot, cold, wet, or windy it might be!

Date:

Astronomy

Jan. 21, 2014 Rise Set
Actual Time 7:20 AM PST 5:17 PM PST
Civil Twilight 6:52 AM PST 5:46 PM PST
Nautical Twilight 6:19 AM PST 6:18 PM PST
Astronomical Twilight 5:48 AM PST 6:50 PM PST
Moon 10:51 PM PST (1/21) 9:58 AM PST (1/21)
Length of Visible Light 10h 54m
Length of Day
9h 57m
Waning Gibbous, 73% of the Moon is Illuminated
Jan 21
Waning Gibbous
Jan 23
Last Quarter
Jan 30
New
Feb 6
First Quarter
Feb 14
Full

Hourly Weather History & Observations

Time (PST) Temp. Windchill Dew Point Humidity Pressure Visibility Wind Dir Wind Speed Gust Speed Precip Events Conditions
12:53 AM 35.1 °F - 27.0 °F 72% 30.25 in 10.0 mi Calm Calm - N/A   Clear
1:53 AM 34.0 °F 31.0 °F 26.1 °F 73% 30.26 in 10.0 mi SE 3.5 mph - N/A   Clear
2:53 AM 32.0 °F - 25.0 °F 75% 30.26 in 10.0 mi Calm Calm - N/A   Clear
3:53 AM 30.0 °F - 25.0 °F 82% 30.26 in 10.0 mi Calm Calm - N/A   Clear
4:53 AM 30.0 °F - 23.0 °F 75% 30.26 in 10.0 mi Calm Calm - N/A   Clear
5:53 AM 30.9 °F - 25.0 °F 79% 30.27 in 10.0 mi Calm Calm - N/A   Clear
6:53 AM 30.0 °F - 23.0 °F 75% 30.28 in 10.0 mi Calm Calm - N/A   Clear
7:53 AM 33.1 °F - 23.0 °F 66% 30.28 in 10.0 mi Calm Calm - N/A   Clear
8:53 AM 45.0 °F - 28.0 °F 52% 30.30 in 10.0 mi Calm Calm - N/A   Clear
9:53 AM 54.0 °F - 21.9 °F 29% 30.30 in 10.0 mi North 3.5 mph - N/A   Clear
10:53 AM 59.0 °F - 23.0 °F 25% 30.30 in 10.0 mi North 5.8 mph - N/A   Clear
11:53 AM 64.0 °F - 23.0 °F 21% 30.26 in 10.0 mi Variable 4.6 mph - N/A   Clear
12:53 PM 69.1 °F - 21.0 °F 16% 30.22 in 10.0 mi North 5.8 mph - N/A   Clear
1:53 PM 72.0 °F - 19.0 °F 13% 30.19 in 10.0 mi North 5.8 mph - N/A   Clear
2:53 PM 73.0 °F - 18.0 °F 12% 30.18 in 10.0 mi North 4.6 mph - N/A   Clear
3:53 PM 72.0 °F - 18.0 °F 13% 30.17 in 10.0 mi NNE 3.5 mph - N/A   Clear
4:53 PM 66.0 °F - 19.0 °F 17% 30.18 in 10.0 mi Calm Calm - N/A   Clear
5:53 PM 50.0 °F - 21.0 °F 32% 30.18 in 10.0 mi Calm Calm - N/A   Clear
6:53 PM 48.0 °F - 19.9 °F 33% 30.19 in 10.0 mi SW 4.6 mph - N/A   Clear
7:53 PM 45.0 °F 43.5 °F 19.0 °F 36% 30.19 in 10.0 mi SW 3.5 mph - N/A   Clear
8:53 PM 39.9 °F - 19.9 °F 45% 30.20 in 10.0 mi Calm Calm - N/A   Clear
9:53 PM 41.0 °F - 23.0 °F 49% 30.19 in 10.0 mi Calm Calm - N/A   Clear
10:53 PM 37.9 °F - 21.9 °F 53% 30.19 in 10.0 mi Calm Calm - N/A   Clear
11:53 PM 36.0 °F - 21.9 °F 57% 30.18 in 10.0 mi Calm Calm - N/A   Clear